Location: Cran-Gévrier
(45.9039°N, 6.1012°E)
Time: 10:25:55
(UTC+00:00)

Cosmos 1602 Rocket - Pass Details

Date: 09 February 2023
Orbit: 603 x 630 km, 82.5° (Epoch: 20 March)

Event Time Altitude Azimuth Distance (km) Brightness Sun altitude
Rises 18:47:32 0° 193° (SSW) 2,846 7.1 -20.4°
Reaches altitude 10° 18:49:45 10° 196° (SSW) 1,946 6.3 -20.8°
Maximum altitude 18:54:02 69° 280° (W) 650 3.8 -21.5°
Drops below altitude 10° 18:58:21 10° 4° (N) 1,962 6.1 -22.3°
Sets 19:00:36 0° 7° (N) 2,873 6.9 -22.7°
